Regional Weather Roundup
Issued by NWS

Home | Current Version | Previous Version | Text Only | Print | Product List | Glossary On
Versions: 1 2 3 4 5 6 7 8 9 10 11 12 13 14 15 16 17 18 19 20 21 22 23 24 25 26 27 28 29 30 31 32 33 34 35 36 37 38 39 40 41 42 43 44 45 46 47 48 49 50
676
ASUS42 KFFC 140303
RWRGA
WEATHER ROUNDUP FOR GEORGIA
NATIONAL WEATHER SERVICE PEACHTREE CITY GA
1000 PM EST SAT FEB 13 2016

NOTE: "FAIR" INDICATES FEW OR NO CLOUDS BELOW 12,000 FEET WITH NO
SIGNIFICANT WEATHER AND/OR OBSTRUCTIONS TO VISIBILITY.

* = USE WITH CAUTION. THE STATIONS MARKED WITH AN ASTERISK MAY NOT
REPORT WEATHER SUCH AS PRECIPITATION, FOG, OR THUNDER AND ARE NOT
QUALITY CONTROLLED BY NWS.

THE REMARK "TC" DENOTES TEMPERATURE READING IN DEGREES CELSIUS.

GAZ001>058-140400-
NORTH GEORGIA

CITY           SKY/WX    TMP DP  RH WIND       PRES   REMARKS
ATLANTA        CLEAR     33   5  30 N9        30.37F WCI  25
ATHENS         CLEAR     34   7  32 NW8       30.37R WCI  27
CHAMBLEE       CLEAR     31   6  35 N6        30.37F WCI  25
PEACHTREE CITY CLEAR     34   7  32 N7        30.38F WCI  28
ROME           CLEAR     29   8  41 N6        30.41S WCI  23
WEST ATLANTA   CLEAR     32   6  33 N6        30.38F WCI  26
GAINESVILLE    CLEAR     29   6  38 NW12      30.35F WCI  19
CARTERSVILLE   CLEAR     30   7  37 N6        30.41F WCI  24


CITY           SKY/WX    TMP DP  RH WIND       PRES   REMARKS
DALTON*        CLEAR     28  10  47 N6        30.42F WCI  22
MARIETTA       CLEAR     31   4  30 N6        30.37F WCI  26
KENNESAW*      CLEAR     30   5  34 CALM      30.39F
BLAIRSVILLE*     N/A     26 -26   9 N3        30.35S
$$

GAZ059>098-102>109-140400-
CENTRAL GEORGIA

CITY           SKY/WX    TMP DP  RH WIND       PRES   REMARKS
AUGUSTA-BUSH   CLEAR     31  20  63 W3        30.37R
AUGUSTA-DANIEL CLEAR     40  12  32 NW6       30.37R
COLUMBUS       CLEAR     40   8  26 NE6       30.38S
MACON          CLEAR     37   7  28 N5        30.39R WCI  33
ROBINS AFB     CLEAR     38   8  29 N7        30.38S WCI  32


CITY           SKY/WX    TMP DP  RH WIND       PRES   REMARKS
LAGRANGE*      CLEAR     39  16  38 N3        30.38S
SYLVANIA*      CLEAR     36  32  87 CALM      30.37R
MILLEDGEVILLE* CLEAR     37  10  32 NW7       30.39S WCI  32
$$

GAZ099>101-110>166-140400-
SOUTH GEORGIA

CITY           SKY/WX    TMP DP  RH WIND       PRES   REMARKS
SAVANNAH       CLEAR     36  28  73 CALM      30.36S
VALDOSTA       CLEAR     43  21  41 N9        30.35S
ALMA           CLEAR     40  19  43 N5        30.36R
ST SIMONS      CLEAR     41  36  82 CALM      30.35R
FT STEWART     CLEAR     34  29  81 CALM      30.33R
ALBANY         CLEAR     40  18  41 N5        30.39S
HUNTER AFB     CLEAR     37  28  70 CALM      30.33R
MOODY AFB      CLEAR     42  20  41 N9        30.34S
BRUNSWICK      CLEAR     37  36  93 CALM      30.36R


CITY           SKY/WX    TMP DP  RH WIND       PRES   REMARKS
BAINBRIDGE*    CLEAR     45  21  39 N5        30.36F
MOULTRIE*      CLEAR     43  25  49 N3        30.37R
VIDALIA*       CLEAR     39  19  45 NW5       30.36R
WAYCROSS*      CLEAR     42  29  62 N6        30.36R
DOUGLAS*       CLEAR     45  18  33 N6        30.38R
$$




USA.gov is the U.S. government's official web portal to all federal, state and local government web resources and services.